This demonstration page uses our WeatherBlox Daily Observations layout. Learn more.

Left ArrowRight Arrow

Hourly Observations for February 15, 2020

Temp ( °F °C ) Dew Point ( °F °C ) Humidity (%) Winds ( mph kmh ) Pressure ( in mb ) Visibility ( mi km ) Precip ( " mm )
12:53 am 00:53 Clear 18 -7.8 11 -11.7 74 74 SE 3 6 30.55 1035 10 16 N/A
1:53 am 01:53 Clear 18 -7.8 11 -11.7 74 74 N N/A 30.55 1035 10 16 N/A
2:53 am 02:53 Clear 16 -8.9 11 -11.7 80 80 N N/A 30.54 1034 10 16 N/A
3:53 am 03:53 Clear 17 -8.3 11 -11.7 77 77 N N/A 30.53 1034 10 16 N/A
4:53 am 04:53 Clear 17 -8.3 12 -11.1 80 80 VRB 3 6 30.52 1033 10 16 N/A
5:53 am 05:53 Clear 17 -8.3 12 -11.1 80 80 N N/A 30.51 1033 10 16 N/A
6:53 am 06:53 Clear 16 -8.9 12 -11.1 84 84 N N/A 30.50 1033 10 16 N/A
7:53 am 07:53 Sunny 14 -10 10 -12.2 84 84 N N/A 30.49 1033 10 16 N/A
8:53 am 08:53 Sunny 19 -7.2 12 -11.1 74 74 VRB 5 7 30.49 1033 10 16 N/A
9:53 am 09:53 Sunny 23 -5 13 -10.6 65 65 S 7 11 30.46 1032 10 16 N/A
10:53 am 10:53 Sunny 28 -2.2 15 -9.4 58 58 VRB 6 9 30.40 1030 10 16 N/A
11:53 am 11:53 Mostly Cloudy 32 undefined 14 -10 47 47 VRB 7 11 30.38 1029 10 16 N/A
12:53 pm 12:53 Sunny 35 1.7 14 -10 42 42 VRB 6 9 30.35 1028 10 16 N/A
1:53 pm 13:53 Sunny 39 3.9 10 -12.2 30 30 SSW 9 15 30.30 1026 10 16 N/A
2:53 pm 14:53 Sunny 43 6.1 11 -11.7 27 27 S 9 15 30.24 1024 10 16 N/A
3:53 pm 15:53 Sunny 45 7.2 10 -12.2 24 24 SSW 12 19 30.23 1024 10 16 N/A
4:53 pm 16:53 Mostly Sunny 45 7.2 11 -11.7 25 25 S 8 13 30.20 1023 10 16 N/A
5:53 pm 17:53 Sunny 44 6.7 13 -10.6 28 28 SSW 6 9 30.19 1022 10 16 N/A
6:53 pm 18:53 Clear 41 5 14 -10 33 33 VRB 3 6 30.19 1023 10 16 N/A
7:53 pm 19:53 Clear 39 3.9 15 -9.4 38 38 N N/A 30.19 1022 10 16 N/A
8:53 pm 20:53 Clear 40 4.4 17 -8.3 40 40 SSW 3 6 30.17 1022 10 16 N/A
9:53 pm 21:53 Mostly Clear 39 3.9 18 -7.8 43 43 VRB 3 6 30.18 1022 10 16 N/A
10:53 pm 22:53 Cloudy 41 5 19 -7.2 41 41 SSW 5 7 30.18 1022 10 16 N/A
11:53 pm 23:53 Cloudy 41 5 21 -6.1 45 45 SW 3 6 30.18 1022 10 16 N/A

Powered by AerisWeather